User: anonymous   Login
Location: Puketoi
(40.5833°S, 176.0167°E)
Time: 23:15:35
(UTC+00:00)
Language:

Okean 1 Rocket - Orbit

View from above orbital plane
View from above orbital plane
View from above satellite
View from above satellite

Ground track
Ground track

The orbit data is extracted from the following two-line orbital elements,

1 19275U 88056B   23151.30657569  .00000480  00000-0  55650-4 0  9991
2 19275  82.5152  95.6532 0018280 243.3648 116.5695 14.83306426864354
Epoch (UTC): 31 May 2023 07:21:28
Eccentricity: 0.0018280
inclination: 82.5152°
perigee height: 606 km
apogee height: 632 km
right ascension of ascending node: 95.6532°
argument of perigee: 243.3648°
revolutions per day: 14.83306426
mean anomaly at epoch: 116.5695°
orbit number at epoch: 86435

The dashed part of the orbit path shows where the satellite is in the earth's shadow,  

DLR